PREAS SBMN-SWKO

Flight info

Callsign PREAS
Flight time 1h 22m
Altitude 2500
Route DCT 0307S06005W/N0155A015 REA 0302S06033W/N0155A025 0324S06107W 0344S06139W 0349S06210W 0353S06237W 0400S06306W DCT
Aircraft BE33/L-SCG/S

Departure

Time 2026-05-06 12:17
Airport Ponta Pelada Airport / Manaus Air Base (SBMN)

Arrival

Time 2026-05-06 13:39
Airport Danilson Municipal Airport (SWKO)
Time Latitude Longitude Altitude Speed Heading
2026-05-06 12:02 -3.14472 -59.98508 253 ft 0 kts 166°
2026-05-06 12:12 -3.14484 -59.98514 253 ft 6 kts 228°
2026-05-06 12:12 -3.14515 -59.98575 253 ft 14 kts 247°
2026-05-06 12:12 -3.14547 -59.98685 254 ft 18 kts 259°
2026-05-06 12:13 -3.14573 -59.98810 256 ft 19 kts 258°
2026-05-06 12:13 -3.14607 -59.98935 257 ft 19 kts 257°
2026-05-06 12:13 -3.14625 -59.99062 257 ft 17 kts 298°
2026-05-06 12:13 -3.14625 -59.99170 258 ft 17 kts 258°
2026-05-06 12:14 -3.14650 -59.99272 259 ft 11 kts 254°
2026-05-06 12:14 -3.14690 -59.99297 259 ft 0 kts 164°
2026-05-06 12:15 -3.14691 -59.99296 259 ft 2 kts 164°
2026-05-06 12:15 -3.14702 -59.99293 259 ft 2 kts 165°
2026-05-06 12:15 -3.14736 -59.99284 260 ft 8 kts 155°
2026-05-06 12:15 -3.14748 -59.99222 259 ft 11 kts 77°
2026-05-06 12:16 -3.14744 -59.99206 259 ft 0 kts 76°
2026-05-06 12:16 -3.14715 -59.99093 258 ft 41 kts 76°
2026-05-06 12:16 -3.14597 -59.98635 285 ft 89 kts 73°
2026-05-06 12:16 -3.14431 -59.97947 405 ft 117 kts 76°
2026-05-06 12:17 -3.14247 -59.97122 728 ft 123 kts 75°
2026-05-06 12:17 -3.13922 -59.96314 1066 ft 125 kts 64°
2026-05-06 12:17 -3.13547 -59.95538 1394 ft 125 kts 64°
2026-05-06 12:17 -3.12995 -59.94866 1530 ft 136 kts 26°
2026-05-06 12:18 -3.12031 -59.94901 1537 ft 149 kts 335°
2026-05-06 12:18 -3.11411 -59.95724 1536 ft 155 kts 286°
2026-05-06 12:18 -3.11273 -59.96791 1533 ft 154 kts 278°
2026-05-06 12:18 -3.11173 -59.97858 1535 ft 155 kts 277°
2026-05-06 12:19 -3.11062 -59.98933 1536 ft 153 kts 278°
2026-05-06 12:19 -3.10956 -59.99985 1533 ft 151 kts 278°
2026-05-06 12:19 -3.10854 -60.01039 1534 ft 152 kts 278°
2026-05-06 12:19 -3.10755 -60.02095 1539 ft 153 kts 278°
2026-05-06 12:20 -3.10662 -60.03159 1543 ft 154 kts 278°
2026-05-06 12:20 -3.10563 -60.04239 1539 ft 157 kts 278°
2026-05-06 12:20 -3.10459 -60.05323 1540 ft 156 kts 277°
2026-05-06 12:20 -3.10582 -60.06406 1541 ft 159 kts 259°
2026-05-06 12:21 -3.10816 -60.07475 1539 ft 160 kts 258°
2026-05-06 12:21 -3.11046 -60.08585 1544 ft 163 kts 259°
2026-05-06 12:21 -3.11281 -60.09704 1544 ft 166 kts 259°
2026-05-06 12:21 -3.11524 -60.10823 1550 ft 168 kts 259°
2026-05-06 12:22 -3.11780 -60.11977 1547 ft 172 kts 258°
2026-05-06 12:22 -3.12052 -60.13154 1538 ft 175 kts 257°
2026-05-06 12:22 -3.12335 -60.14337 1535 ft 175 kts 259°
2026-05-06 12:22 -3.12599 -60.15518 1532 ft 174 kts 257°
2026-05-06 12:23 -3.12861 -60.16698 1527 ft 172 kts 258°
2026-05-06 12:23 -3.13116 -60.17849 1529 ft 168 kts 259°
2026-05-06 12:23 -3.13363 -60.18960 1532 ft 161 kts 258°
2026-05-06 12:23 -3.13610 -60.20047 1528 ft 158 kts 258°
2026-05-06 12:24 -3.13856 -60.21101 1535 ft 153 kts 258°
2026-05-06 12:24 -3.14101 -60.22153 1537 ft 158 kts 259°
2026-05-06 12:24 -3.14355 -60.23227 1531 ft 158 kts 258°
2026-05-06 12:24 -3.14612 -60.24296 1530 ft 157 kts 258°
2026-05-06 12:25 -3.14514 -60.25337 1525 ft 150 kts 297°
2026-05-06 12:25 -3.14077 -60.26283 1528 ft 151 kts 298°
2026-05-06 12:25 -3.13624 -60.27233 1524 ft 150 kts 299°
2026-05-06 12:25 -3.13169 -60.28172 1530 ft 151 kts 299°
2026-05-06 12:26 -3.12700 -60.29122 1528 ft 153 kts 300°
2026-05-06 12:26 -3.12245 -60.30087 1527 ft 154 kts 299°
2026-05-06 12:26 -3.11801 -60.31048 1523 ft 150 kts 299°
2026-05-06 12:26 -3.11355 -60.31993 1524 ft 149 kts 299°
2026-05-06 12:27 -3.10887 -60.32929 1531 ft 152 kts 300°
2026-05-06 12:27 -3.10412 -60.33887 1535 ft 156 kts 300°
2026-05-06 12:27 -3.09983 -60.34884 1530 ft 159 kts 284°
2026-05-06 12:27 -3.09884 -60.35983 1521 ft 157 kts 277°
2026-05-06 12:28 -3.09812 -60.37065 1522 ft 155 kts 277°
2026-05-06 12:28 -3.09728 -60.38140 1522 ft 155 kts 277°
2026-05-06 12:28 -3.09639 -60.39207 1523 ft 157 kts 277°
2026-05-06 12:28 -3.09541 -60.40299 1527 ft 158 kts 279°
2026-05-06 12:29 -3.09369 -60.41403 1535 ft 164 kts 282°
2026-05-06 12:29 -3.09166 -60.42550 1533 ft 169 kts 282°
2026-05-06 12:29 -3.08951 -60.43708 1526 ft 168 kts 283°
2026-05-06 12:29 -3.08754 -60.44856 1525 ft 166 kts 282°
2026-05-06 12:30 -3.08350 -60.45890 1524 ft 158 kts 306°
2026-05-06 12:30 -3.07732 -60.46792 1521 ft 156 kts 307°
2026-05-06 12:30 -3.07109 -60.47683 1526 ft 157 kts 307°
2026-05-06 12:30 -3.06477 -60.48582 1526 ft 159 kts 308°
2026-05-06 12:31 -3.05845 -60.49491 1519 ft 158 kts 308°
2026-05-06 12:31 -3.05228 -60.50393 1525 ft 156 kts 307°
2026-05-06 12:31 -3.04611 -60.51289 1525 ft 156 kts 308°
2026-05-06 12:31 -3.03994 -60.52182 1521 ft 155 kts 307°
2026-05-06 12:32 -3.03426 -60.53073 1526 ft 155 kts 293°
2026-05-06 12:32 -3.03476 -60.54146 1522 ft 161 kts 246°
2026-05-06 12:32 -3.04011 -60.55137 1523 ft 162 kts 240°
2026-05-06 12:32 -3.04534 -60.56075 1759 ft 148 kts 240°
2026-05-06 12:33 -3.05015 -60.56941 2013 ft 139 kts 240°
2026-05-06 12:33 -3.05475 -60.57759 2275 ft 132 kts 240°
2026-05-06 12:33 -3.05906 -60.58541 2509 ft 127 kts 240°
2026-05-06 12:33 -3.06365 -60.59365 2515 ft 143 kts 240°
2026-05-06 12:34 -3.06863 -60.60269 2515 ft 153 kts 241°
2026-05-06 12:34 -3.07391 -60.61227 2523 ft 161 kts 240°
2026-05-06 12:34 -3.07934 -60.62214 2529 ft 163 kts 240°
2026-05-06 12:34 -3.08471 -60.63214 2531 ft 164 kts 241°
2026-05-06 12:35 -3.09026 -60.64217 2541 ft 165 kts 240°
2026-05-06 12:35 -3.09583 -60.65225 2538 ft 165 kts 240°
2026-05-06 12:35 -3.10135 -60.66230 2541 ft 164 kts 241°
2026-05-06 12:35 -3.10693 -60.67222 2536 ft 164 kts 241°
2026-05-06 12:36 -3.11250 -60.68210 2538 ft 162 kts 240°
2026-05-06 12:36 -3.11806 -60.69183 2536 ft 160 kts 240°
2026-05-06 12:36 -3.12389 -60.70141 2539 ft 162 kts 238°
2026-05-06 12:36 -3.12974 -60.71109 2536 ft 162 kts 238°
2026-05-06 12:37 -3.13547 -60.72083 2530 ft 163 kts 239°
2026-05-06 12:37 -3.14135 -60.73066 2533 ft 165 kts 239°
2026-05-06 12:37 -3.14731 -60.74056 2533 ft 166 kts 238°
2026-05-06 12:37 -3.15327 -60.75050 2536 ft 166 kts 239°
2026-05-06 12:38 -3.15922 -60.76045 2541 ft 166 kts 238°
2026-05-06 12:38 -3.16515 -60.77042 2537 ft 167 kts 238°
2026-05-06 12:38 -3.17124 -60.78030 2541 ft 168 kts 238°
2026-05-06 12:38 -3.17749 -60.79021 2540 ft 168 kts 237°
2026-05-06 12:39 -3.18363 -60.80015 2538 ft 168 kts 238°
2026-05-06 12:39 -3.18982 -60.81015 2539 ft 170 kts 237°
2026-05-06 12:39 -3.19605 -60.82016 2539 ft 169 kts 237°
2026-05-06 12:39 -3.20221 -60.83024 2539 ft 170 kts 237°
2026-05-06 12:40 -3.20838 -60.84034 2539 ft 171 kts 237°
2026-05-06 12:40 -3.21465 -60.85044 2541 ft 171 kts 237°
2026-05-06 12:40 -3.22085 -60.86056 2540 ft 171 kts 238°
2026-05-06 12:40 -3.22710 -60.87073 2538 ft 172 kts 238°
2026-05-06 12:41 -3.23350 -60.88065 2537 ft 171 kts 235°
2026-05-06 12:41 -3.24036 -60.89060 2537 ft 172 kts 235°
2026-05-06 12:41 -3.24712 -60.90040 2538 ft 171 kts 234°
2026-05-06 12:41 -3.25371 -60.91007 2536 ft 170 kts 235°
2026-05-06 12:42 -3.26044 -60.91977 2538 ft 169 kts 234°
2026-05-06 12:42 -3.26711 -60.92945 2541 ft 169 kts 234°
2026-05-06 12:42 -3.27374 -60.93918 2541 ft 170 kts 235°
2026-05-06 12:42 -3.28042 -60.94894 2539 ft 170 kts 235°
2026-05-06 12:43 -3.28715 -60.95861 2535 ft 169 kts 234°
2026-05-06 12:43 -3.29387 -60.96830 2536 ft 170 kts 235°
2026-05-06 12:43 -3.30064 -60.97803 2538 ft 170 kts 235°
2026-05-06 12:43 -3.30744 -60.98770 2534 ft 169 kts 234°
2026-05-06 12:44 -3.31411 -60.99736 2538 ft 169 kts 234°
2026-05-06 12:44 -3.32077 -61.00707 2536 ft 169 kts 234°
2026-05-06 12:44 -3.32743 -61.01680 2538 ft 170 kts 234°
2026-05-06 12:44 -3.33410 -61.02662 2538 ft 171 kts 235°
2026-05-06 12:45 -3.34078 -61.03651 2543 ft 172 kts 235°
2026-05-06 12:45 -3.34754 -61.04633 2540 ft 171 kts 234°
2026-05-06 12:45 -3.36171 -61.06547 2537 ft 172 kts 232°
2026-05-06 12:46 -3.36911 -61.07478 2538 ft 170 kts 227°
2026-05-06 12:46 -3.37707 -61.08355 2537 ft 170 kts 227°
2026-05-06 12:46 -3.38502 -61.09228 2537 ft 169 kts 227°
2026-05-06 12:46 -3.39291 -61.10101 2537 ft 169 kts 227°
2026-05-06 12:47 -3.40084 -61.10976 2535 ft 170 kts 227°
2026-05-06 12:47 -3.40878 -61.11853 2536 ft 170 kts 227°
2026-05-06 12:47 -3.41669 -61.12736 2536 ft 171 kts 227°
2026-05-06 12:47 -3.42469 -61.13620 2537 ft 172 kts 227°
2026-05-06 12:48 -3.43275 -61.14501 2535 ft 172 kts 227°
2026-05-06 12:48 -3.44083 -61.15381 2535 ft 171 kts 227°
2026-05-06 12:48 -3.44889 -61.16258 2535 ft 171 kts 227°
2026-05-06 12:48 -3.45699 -61.17128 2529 ft 170 kts 226°
2026-05-06 12:49 -3.46494 -61.17994 2535 ft 170 kts 226°
2026-05-06 12:49 -3.47293 -61.18868 2528 ft 170 kts 226°
2026-05-06 12:49 -3.48086 -61.19741 2529 ft 169 kts 226°
2026-05-06 12:49 -3.48879 -61.20614 2535 ft 170 kts 226°
2026-05-06 12:50 -3.49674 -61.21498 2534 ft 170 kts 227°
2026-05-06 12:50 -3.50468 -61.22369 2539 ft 170 kts 227°
2026-05-06 12:50 -3.51265 -61.23239 2537 ft 169 kts 227°
2026-05-06 12:50 -3.52056 -61.24110 2538 ft 169 kts 227°
2026-05-06 12:51 -3.52726 -61.25077 2534 ft 170 kts 239°
2026-05-06 12:51 -3.53322 -61.26091 2525 ft 168 kts 240°
2026-05-06 12:51 -3.53907 -61.27088 2534 ft 169 kts 239°
2026-05-06 12:51 -3.54484 -61.28115 2531 ft 170 kts 241°
2026-05-06 12:52 -3.55037 -61.29162 2536 ft 172 kts 243°
2026-05-06 12:52 -3.55583 -61.30226 2538 ft 172 kts 243°
2026-05-06 12:52 -3.56129 -61.31287 2537 ft 172 kts 242°
2026-05-06 12:52 -3.56698 -61.32346 2540 ft 173 kts 242°
2026-05-06 12:53 -3.57274 -61.33409 2540 ft 173 kts 240°
2026-05-06 12:53 -3.57854 -61.34463 2540 ft 173 kts 241°
2026-05-06 12:53 -3.58454 -61.35502 2537 ft 172 kts 239°
2026-05-06 12:53 -3.59054 -61.36523 2543 ft 170 kts 239°
2026-05-06 12:54 -3.59674 -61.37542 2553 ft 174 kts 237°
2026-05-06 12:54 -3.60283 -61.38606 2544 ft 177 kts 239°
2026-05-06 12:54 -3.60936 -61.39657 2537 ft 179 kts 239°
2026-05-06 12:54 -3.61537 -61.40703 2527 ft 169 kts 239°
2026-05-06 12:55 -3.62162 -61.41712 2538 ft 173 kts 239°
2026-05-06 12:55 -3.62771 -61.42727 2531 ft 168 kts 237°
2026-05-06 12:55 -3.63385 -61.43719 2530 ft 167 kts 239°
2026-05-06 12:55 -3.63982 -61.44700 2532 ft 164 kts 239°
2026-05-06 12:56 -3.64572 -61.45660 2532 ft 164 kts 238°
2026-05-06 12:56 -3.65166 -61.46632 2534 ft 163 kts 239°
2026-05-06 12:56 -3.65755 -61.47604 2535 ft 164 kts 239°
2026-05-06 12:56 -3.66350 -61.48580 2535 ft 165 kts 239°
2026-05-06 12:57 -3.66955 -61.49563 2538 ft 166 kts 238°
2026-05-06 12:57 -3.67555 -61.50555 2540 ft 167 kts 239°
2026-05-06 12:57 -3.68162 -61.51545 2541 ft 167 kts 238°
2026-05-06 12:57 -3.68754 -61.52546 2540 ft 167 kts 240°
2026-05-06 12:58 -3.69337 -61.53555 2541 ft 168 kts 240°
2026-05-06 12:58 -3.69740 -61.54236 2539 ft 168 kts 239°
2026-05-06 12:58 -3.70512 -61.55567 2543 ft 167 kts 240°
2026-05-06 12:58 -3.70906 -61.56252 2542 ft 168 kts 240°
2026-05-06 12:59 -3.71487 -61.57253 2542 ft 168 kts 241°
2026-05-06 12:59 -3.71970 -61.58321 2542 ft 169 kts 248°
2026-05-06 12:59 -3.72412 -61.59405 2543 ft 168 kts 249°
2026-05-06 12:59 -3.72862 -61.60484 2543 ft 168 kts 247°
2026-05-06 13:00 -3.73309 -61.61568 2542 ft 169 kts 248°
2026-05-06 13:00 -3.73746 -61.62659 2545 ft 169 kts 252°
2026-05-06 13:00 -3.73994 -61.63803 2546 ft 168 kts 262°
2026-05-06 13:00 -3.74191 -61.64957 2544 ft 168 kts 262°
2026-05-06 13:01 -3.74383 -61.66112 2548 ft 168 kts 262°
2026-05-06 13:01 -3.74566 -61.67271 2547 ft 168 kts 264°
2026-05-06 13:01 -3.74708 -61.68426 2546 ft 166 kts 265°
2026-05-06 13:01 -3.74842 -61.69574 2546 ft 166 kts 265°
2026-05-06 13:02 -3.74976 -61.70725 2546 ft 167 kts 265°
2026-05-06 13:02 -3.75118 -61.71874 2546 ft 166 kts 264°
2026-05-06 13:02 -3.75246 -61.73022 2547 ft 166 kts 265°
2026-05-06 13:02 -3.75378 -61.74177 2546 ft 167 kts 265°
2026-05-06 13:03 -3.75517 -61.75331 2547 ft 167 kts 265°
2026-05-06 13:03 -3.75662 -61.76486 2546 ft 167 kts 265°
2026-05-06 13:03 -3.75807 -61.77639 2544 ft 166 kts 264°
2026-05-06 13:03 -3.75954 -61.78779 2548 ft 165 kts 264°
2026-05-06 13:04 -3.76105 -61.79915 2543 ft 164 kts 265°
2026-05-06 13:04 -3.76249 -61.81029 2540 ft 163 kts 265°
2026-05-06 13:04 -3.76381 -61.82166 2546 ft 165 kts 265°
2026-05-06 13:04 -3.76521 -61.83309 2544 ft 165 kts 265°
2026-05-06 13:05 -3.76668 -61.84445 2545 ft 165 kts 264°
2026-05-06 13:05 -3.76808 -61.85589 2545 ft 166 kts 265°
2026-05-06 13:05 -3.76945 -61.86741 2545 ft 167 kts 265°
2026-05-06 13:05 -3.77085 -61.87894 2547 ft 167 kts 265°
2026-05-06 13:06 -3.77222 -61.89054 2548 ft 169 kts 265°
2026-05-06 13:06 -3.77366 -61.90227 2547 ft 170 kts 265°
2026-05-06 13:06 -3.77513 -61.91410 2550 ft 171 kts 265°
2026-05-06 13:06 -3.77651 -61.92591 2550 ft 170 kts 265°
2026-05-06 13:07 -3.77780 -61.93767 2547 ft 169 kts 265°
2026-05-06 13:07 -3.77902 -61.94945 2549 ft 171 kts 265°
2026-05-06 13:07 -3.78027 -61.96115 2547 ft 171 kts 265°
2026-05-06 13:07 -3.78171 -61.97308 2549 ft 170 kts 263°
2026-05-06 13:08 -3.78326 -61.98469 2548 ft 171 kts 263°
2026-05-06 13:08 -3.78497 -61.99663 2548 ft 171 kts 263°
2026-05-06 13:08 -3.78659 -62.00825 2548 ft 170 kts 263°
2026-05-06 13:08 -3.78812 -62.02005 2547 ft 171 kts 264°
2026-05-06 13:09 -3.78979 -62.03182 2549 ft 171 kts 263°
2026-05-06 13:09 -3.79147 -62.04357 2550 ft 170 kts 263°
2026-05-06 13:09 -3.79323 -62.05527 2550 ft 170 kts 263°
2026-05-06 13:09 -3.79498 -62.06693 2549 ft 169 kts 264°
2026-05-06 13:10 -3.79697 -62.07852 2549 ft 169 kts 261°
2026-05-06 13:10 -3.79930 -62.09006 2547 ft 168 kts 261°
2026-05-06 13:10 -3.80156 -62.10157 2548 ft 169 kts 261°
2026-05-06 13:10 -3.80392 -62.11309 2544 ft 168 kts 260°
2026-05-06 13:11 -3.80624 -62.12446 2546 ft 166 kts 260°
2026-05-06 13:11 -3.80841 -62.13589 2546 ft 167 kts 260°
2026-05-06 13:11 -3.81066 -62.14735 2542 ft 168 kts 260°
2026-05-06 13:11 -3.81291 -62.15879 2542 ft 167 kts 260°
2026-05-06 13:12 -3.81510 -62.17021 2544 ft 167 kts 260°
2026-05-06 13:12 -3.81735 -62.18166 2545 ft 168 kts 261°
2026-05-06 13:12 -3.81959 -62.19322 2543 ft 168 kts 261°
2026-05-06 13:12 -3.82179 -62.20472 2545 ft 168 kts 261°
2026-05-06 13:13 -3.82404 -62.21622 2543 ft 168 kts 260°
2026-05-06 13:13 -3.82624 -62.22771 2544 ft 168 kts 260°
2026-05-06 13:13 -3.82840 -62.23924 2546 ft 169 kts 260°
2026-05-06 13:13 -3.83047 -62.25081 2546 ft 168 kts 260°
2026-05-06 13:14 -3.83250 -62.26238 2547 ft 169 kts 261°
2026-05-06 13:14 -3.83457 -62.27396 2547 ft 169 kts 260°
2026-05-06 13:14 -3.83655 -62.28545 2546 ft 170 kts 261°
2026-05-06 13:14 -3.83869 -62.29709 2546 ft 170 kts 261°
2026-05-06 13:15 -3.84082 -62.30867 2546 ft 169 kts 260°
2026-05-06 13:15 -3.84282 -62.32027 2548 ft 170 kts 261°
2026-05-06 13:15 -3.84490 -62.33192 2550 ft 170 kts 261°
2026-05-06 13:15 -3.84707 -62.34360 2547 ft 170 kts 260°
2026-05-06 13:16 -3.84918 -62.35524 2545 ft 169 kts 260°
2026-05-06 13:16 -3.85119 -62.36683 2545 ft 169 kts 261°
2026-05-06 13:16 -3.85327 -62.37840 2544 ft 169 kts 260°
2026-05-06 13:16 -3.85528 -62.38995 2546 ft 168 kts 261°
2026-05-06 13:17 -3.85736 -62.40151 2546 ft 169 kts 260°
2026-05-06 13:17 -3.85949 -62.41306 2547 ft 169 kts 260°
2026-05-06 13:17 -3.86155 -62.42463 2549 ft 169 kts 261°
2026-05-06 13:17 -3.86367 -62.43623 2548 ft 169 kts 261°
2026-05-06 13:18 -3.86579 -62.44782 2544 ft 169 kts 261°
2026-05-06 13:18 -3.86794 -62.45940 2545 ft 169 kts 261°
2026-05-06 13:18 -3.87010 -62.47091 2544 ft 168 kts 260°
2026-05-06 13:18 -3.87225 -62.48241 2542 ft 168 kts 260°
2026-05-06 13:19 -3.87437 -62.49372 2545 ft 166 kts 260°
2026-05-06 13:19 -3.87651 -62.50522 2547 ft 166 kts 260°
2026-05-06 13:19 -3.87859 -62.51664 2546 ft 168 kts 261°
2026-05-06 13:19 -3.88067 -62.52799 2545 ft 167 kts 261°
2026-05-06 13:20 -3.88279 -62.53939 2542 ft 166 kts 260°
2026-05-06 13:20 -3.88488 -62.55081 2542 ft 167 kts 261°
2026-05-06 13:20 -3.88702 -62.56230 2542 ft 168 kts 260°
2026-05-06 13:20 -3.88913 -62.57379 2541 ft 168 kts 261°
2026-05-06 13:21 -3.89124 -62.58526 2544 ft 167 kts 261°
2026-05-06 13:21 -3.89338 -62.59673 2543 ft 168 kts 260°
2026-05-06 13:21 -3.89548 -62.60824 2545 ft 168 kts 261°
2026-05-06 13:21 -3.89754 -62.61976 2546 ft 169 kts 261°
2026-05-06 13:22 -3.89969 -62.63129 2543 ft 168 kts 260°
2026-05-06 13:22 -3.90195 -62.64278 2545 ft 169 kts 259°
2026-05-06 13:22 -3.90421 -62.65432 2545 ft 169 kts 259°
2026-05-06 13:22 -3.90643 -62.66590 2545 ft 170 kts 260°
2026-05-06 13:23 -3.90869 -62.67755 2545 ft 171 kts 260°
2026-05-06 13:23 -3.91096 -62.68922 2547 ft 171 kts 259°
2026-05-06 13:23 -3.91314 -62.70094 2547 ft 171 kts 259°
2026-05-06 13:23 -3.91537 -62.71270 2546 ft 172 kts 259°
2026-05-06 13:24 -3.91767 -62.72444 2547 ft 171 kts 259°
2026-05-06 13:24 -3.91990 -62.73608 2549 ft 170 kts 259°
2026-05-06 13:24 -3.92209 -62.74770 2548 ft 170 kts 259°
2026-05-06 13:24 -3.92434 -62.75934 2547 ft 170 kts 259°
2026-05-06 13:25 -3.92659 -62.77091 2548 ft 169 kts 260°
2026-05-06 13:25 -3.92887 -62.78243 2546 ft 168 kts 259°
2026-05-06 13:25 -3.93113 -62.79396 2547 ft 169 kts 259°
2026-05-06 13:25 -3.93325 -62.80551 2548 ft 169 kts 260°
2026-05-06 13:26 -3.93554 -62.81703 2550 ft 168 kts 259°
2026-05-06 13:26 -3.93778 -62.82854 2550 ft 168 kts 260°
2026-05-06 13:26 -3.93999 -62.84008 2552 ft 169 kts 260°
2026-05-06 13:26 -3.94226 -62.85172 2555 ft 171 kts 260°
2026-05-06 13:27 -3.94460 -62.86342 2551 ft 172 kts 260°
2026-05-06 13:27 -3.94694 -62.87513 2547 ft 170 kts 259°
2026-05-06 13:27 -3.94920 -62.88670 2549 ft 169 kts 259°
2026-05-06 13:27 -3.95148 -62.89825 2545 ft 169 kts 259°
2026-05-06 13:28 -3.95375 -62.90956 2546 ft 167 kts 259°
2026-05-06 13:28 -3.95601 -62.92102 2547 ft 168 kts 259°
2026-05-06 13:28 -3.95825 -62.93255 2547 ft 169 kts 259°
2026-05-06 13:28 -3.96051 -62.94416 2548 ft 171 kts 259°
2026-05-06 13:29 -3.96276 -62.95586 2548 ft 171 kts 259°
2026-05-06 13:29 -3.96500 -62.96758 2549 ft 172 kts 259°
2026-05-06 13:29 -3.96725 -62.97935 2547 ft 172 kts 260°
2026-05-06 13:29 -3.96951 -62.99109 2549 ft 172 kts 260°
2026-05-06 13:30 -3.97183 -63.00284 2553 ft 172 kts 260°
2026-05-06 13:30 -3.97414 -63.01464 2548 ft 173 kts 260°
2026-05-06 13:30 -3.97640 -63.02644 2549 ft 172 kts 259°
2026-05-06 13:30 -3.97864 -63.03825 2503 ft 175 kts 259°
2026-05-06 13:31 -3.98087 -63.05023 2379 ft 175 kts 260°
2026-05-06 13:31 -3.98320 -63.06220 2256 ft 175 kts 260°
2026-05-06 13:31 -3.98549 -63.07407 2137 ft 173 kts 260°
2026-05-06 13:31 -3.98952 -63.08515 2009 ft 170 kts 230°
2026-05-06 13:32 -3.99940 -63.09096 1882 ft 165 kts 193°
2026-05-06 13:32 -4.01053 -63.09386 1756 ft 165 kts 192°
2026-05-06 13:32 -4.02170 -63.09653 1634 ft 166 kts 191°
2026-05-06 13:32 -4.03292 -63.09929 1549 ft 164 kts 191°
2026-05-06 13:33 -4.04384 -63.10201 1555 ft 161 kts 192°
2026-05-06 13:33 -4.05469 -63.10455 1544 ft 159 kts 190°
2026-05-06 13:33 -4.06543 -63.10713 1544 ft 158 kts 191°
2026-05-06 13:33 -4.07611 -63.10963 1547 ft 158 kts 191°
2026-05-06 13:34 -4.08677 -63.11216 1545 ft 157 kts 191°
2026-05-06 13:34 -4.09732 -63.11468 1541 ft 154 kts 197°
2026-05-06 13:34 -4.10509 -63.12162 1540 ft 155 kts 248°
2026-05-06 13:34 -4.10650 -63.13201 1538 ft 149 kts 269°
2026-05-06 13:35 -4.10678 -63.14248 1539 ft 151 kts 270°
2026-05-06 13:35 -4.10703 -63.15314 1539 ft 156 kts 269°
2026-05-06 13:35 -4.10725 -63.16394 1534 ft 151 kts 270°
2026-05-06 13:35 -4.10751 -63.17409 1541 ft 143 kts 270°
2026-05-06 13:36 -4.10783 -63.18385 1533 ft 137 kts 269°
2026-05-06 13:36 -4.11057 -63.19247 1533 ft 133 kts 224°
2026-05-06 13:36 -4.11854 -63.19531 1536 ft 121 kts 178°
2026-05-06 13:36 -4.12647 -63.19404 1532 ft 106 kts 134°
2026-05-06 13:37 -4.12856 -63.18784 1539 ft 92 kts 84°
2026-05-06 13:37 -4.12946 -63.18186 1428 ft 90 kts 109°
2026-05-06 13:37 -4.13188 -63.17621 1265 ft 90 kts 104°
2026-05-06 13:37 -4.13332 -63.17003 1068 ft 93 kts 97°
2026-05-06 13:38 -4.13393 -63.16370 908 ft 93 kts 92°
2026-05-06 13:38 -4.13401 -63.15723 727 ft 92 kts 88°
2026-05-06 13:38 -4.13406 -63.15090 548 ft 91 kts 88°
2026-05-06 13:38 -4.13410 -63.14455 331 ft 91 kts 86°
2026-05-06 13:39 -4.13407 -63.13814 156 ft 83 kts 86°
2026-05-06 13:39 -4.13402 -63.13387 147 ft 33 kts 89°
2026-05-06 13:39 -4.13414 -63.13294 149 ft 5 kts 77°
2026-05-06 13:39 -4.13405 -63.13316 148 ft 6 kts 275°
2026-05-06 13:40 -4.13403 -63.13378 147 ft 11 kts 270°
2026-05-06 13:40 -4.13398 -63.13464 147 ft 11 kts 297°
2026-05-06 13:40 -4.13343 -63.13488 147 ft 7 kts
2026-05-06 13:40 -4.13335 -63.13487 147 ft 0 kts
2026-05-06 13:41 -4.13330 -63.13487 147 ft 2 kts 359°
2026-05-06 13:41 -4.13304 -63.13487 147 ft 6 kts
2026-05-06 13:41 -4.13262 -63.13492 147 ft 5 kts 321°
2026-05-06 13:42 -4.13237 -63.13504 146 ft 3 kts 354°
2026-05-06 13:42 -4.13231 -63.13504 146 ft 0 kts 353°